Overview Statistics Trail Chart Weather Telemetry Raw packets
 

This is the latest recevied weather packets stored in our database for station/object KD4EED. If no packets are shown the sender has not sent any weather packets the latest 10 day(s).

<< 44 45 46 47 48 49 50 >>
Time Temp. Humidity Pressure Rain* Wind** Luminosity Snow
1788380539 28.33° C 47% 1013.4 hPa - - 625 W/m² -
1788380235 28.33° C 47% 1013.4 hPa - - 625 W/m² -
1788379934 28.89° C 47% 1013.5 hPa - - 622 W/m² -
1788379629 28.33° C 47% 1013.4 hPa - - 618 W/m² -
1788379325 28.33° C 48% 1013.6 hPa - - 617 W/m² -
1788379026 28.33° C 48% 1013.4 hPa - - 617 W/m² -
1788378725 27.78° C 49% 1013.5 hPa - - 617 W/m² -
1788378424 27.78° C 49% 1013.8 hPa - - 615 W/m² -
1788378119 27.78° C 50% 1013.8 hPa - - 608 W/m² -
1788377815 27.78° C 50% 1013.8 hPa - - 601 W/m² -
1788377511 27.78° C 50% 1013.8 hPa - - 599 W/m² -
1788377209 27.78° C 51% 1013.8 hPa - - 591 W/m² -
1788376908 27.78° C 51% 1013.9 hPa - - 586 W/m² -
1788376603 27.22° C 53% 1013.8 hPa - - 576 W/m² -
1788376303 27.22° C 52% 1013.9 hPa - - 573 W/m² -
1788375999 27.22° C 53% 1013.8 hPa - - 570 W/m² -
1788375694 27.22° C 53% 1013.9 hPa - - 561 W/m² -
1788375389 27.22° C 53% 1014 hPa - - 559 W/m² -
1788375085 26.67° C 54% 1014.1 hPa - - 552 W/m² -
1788374780 26.67° C 53% 1014.2 hPa - - 552 W/m² -
1788374475 26.67° C 54% 1014.2 hPa - - 550 W/m² -
1788374172 26.67° C 53% 1014.2 hPa - - 545 W/m² -
1788373868 27.22° C 53% 1014.2 hPa - - 539 W/m² -
1788373564 27.22° C 53% 1014.2 hPa - - 543 W/m² -
1788373260 26.67° C 55% 1014.2 hPa - - 542 W/m² -

* Rain since midnight (hover to see other rain measurements)
** Current wind speed in m/s (hover to see current wind gust speed)